Location: *
(45.0500°N, 12.0500°E)
Time: 09:10:33
(UTC+00:00)

SL-4 R/B - Pass Details

Date: 09 April 2020
Orbit: 428 x 666 km, 51.6° (Epoch: 06 June)

Event Time Altitude Azimuth Distance (km) Brightness Sun altitude
Rises 20:42:53 0° 292° (WNW) 2,396 6.3 -27.1°
Reaches altitude 10° 20:45:10 10° 305° (NW) 1,537 5.2 -27.4°
Enters shadow 20:47:07 23° 334° (NNW) 976 3.9 -27.6°
